ARG1531 SACO-SABE

Flight info

Callsign ARG1531
Flight time N/A
Altitude 37000
Route UTRAX UW24 SNT SNT9R
Aircraft B738/M-SDE2E3FGHIRWXY/LB1

Departure

Time 2026-05-03 22:02
Airport Ingeniero Aeronáutico Ambrosio L.V. Taravella International Airport (SACO)

Arrival

Time N/A
Airport Aeroparque Jorge Newbery (SABE)
Time Latitude Longitude Altitude Speed Heading
2026-05-03 21:24 -31.31486 -64.21180 1612 ft 0 kts 257°
2026-05-03 21:51 -31.31484 -64.21171 1612 ft 3 kts 259°
2026-05-03 21:51 -31.31481 -64.21147 1618 ft 3 kts 264°
2026-05-03 21:51 -31.31479 -64.21126 1616 ft 3 kts 257°
2026-05-03 21:52 -31.31472 -64.21108 1619 ft 3 kts 216°
2026-05-03 21:52 -31.31455 -64.21101 1618 ft 3 kts 180°
2026-05-03 21:52 -31.31435 -64.21102 1619 ft 3 kts 179°
2026-05-03 21:52 -31.31416 -64.21102 1619 ft 3 kts 181°
2026-05-03 21:53 -31.31402 -64.21102 1618 ft 1 kts 181°
2026-05-03 21:56 -31.31411 -64.21102 1612 ft 3 kts 183°
2026-05-03 21:56 -31.31450 -64.21099 1617 ft 8 kts 163°
2026-05-03 21:56 -31.31514 -64.21082 1617 ft 12 kts 178°
2026-05-03 21:56 -31.31600 -64.21102 1619 ft 13 kts 182°
2026-05-03 21:57 -31.31686 -64.21101 1616 ft 12 kts 179°
2026-05-03 21:57 -31.31758 -64.21060 1622 ft 12 kts 142°
2026-05-03 21:57 -31.31832 -64.21030 1619 ft 11 kts 176°
2026-05-03 21:57 -31.31910 -64.21027 1614 ft 11 kts 179°
2026-05-03 21:58 -31.31986 -64.21027 1614 ft 11 kts 180°
2026-05-03 21:58 -31.32060 -64.21026 1614 ft 10 kts 178°
2026-05-03 21:58 -31.32131 -64.21024 1612 ft 10 kts 179°
2026-05-03 21:58 -31.32211 -64.21023 1621 ft 13 kts 179°
2026-05-03 21:59 -31.32308 -64.21021 1617 ft 14 kts 179°
2026-05-03 21:59 -31.32390 -64.21011 1615 ft 9 kts 154°
2026-05-03 21:59 -31.32399 -64.21004 1615 ft 0 kts 143°
2026-05-03 22:00 -31.32401 -64.21003 1615 ft 1 kts 143°
2026-05-03 22:00 -31.32421 -64.20980 1612 ft 7 kts 128°
2026-05-03 22:00 -31.32436 -64.20911 1615 ft 11 kts 81°
2026-05-03 22:01 -31.32389 -64.20831 1614 ft 14 kts 45°
2026-05-03 22:01 -31.32315 -64.20745 1615 ft 16 kts 44°
2026-05-03 22:01 -31.32250 -64.20672 1618 ft 9 kts 44°
2026-05-03 22:01 -31.32234 -64.20654 1618 ft 0 kts 44°
2026-05-03 22:02 -31.32229 -64.20648 1616 ft 12 kts 44°
2026-05-03 22:02 -31.31941 -64.20324 1616 ft 101 kts 44°
2026-05-03 22:02 -31.31266 -64.19561 1793 ft 157 kts 44°
2026-05-03 22:02 -31.30484 -64.18642 2777 ft 164 kts 44°
2026-05-03 22:03 -31.29743 -64.17692 3957 ft 160 kts 43°
2026-05-03 22:03 -31.28960 -64.16621 4421 ft 191 kts 44°
2026-05-03 22:03 -31.28045 -64.15353 4772 ft 213 kts 43°
2026-05-03 22:03 -31.27070 -64.14007 5440 ft 218 kts 44°
2026-05-03 22:04 -31.26049 -64.12610 5886 ft 240 kts 44°
2026-05-03 22:04 -31.24884 -64.11049 6233 ft 266 kts 44°
2026-05-03 22:04 -31.23636 -64.09393 6942 ft 276 kts 44°
2026-05-03 22:04 -31.22363 -64.07724 7711 ft 282 kts 44°
2026-05-03 22:05 -31.21029 -64.06004 8491 ft 289 kts 44°
2026-05-03 22:05 -31.19647 -64.04250 9202 ft 299 kts 44°
2026-05-03 22:05 -31.18201 -64.02460 9917 ft 307 kts 44°
2026-05-03 22:05 -31.16689 -64.00627 10399 ft 323 kts 44°
2026-05-03 22:06 -31.15067 -63.98681 10690 ft 343 kts 44°
2026-05-03 22:06 -31.13374 -63.96662 11239 ft 353 kts 44°
2026-05-03 22:06 -31.11635 -63.94596 11822 ft 358 kts 44°
2026-05-03 22:06 -31.09883 -63.92520 11983 ft 361 kts 44°
2026-05-03 22:07 -31.08112 -63.90427 11992 ft 362 kts 44°
2026-05-03 22:07 -31.06349 -63.88345 11998 ft 360 kts 44°
2026-05-03 22:07 -31.04591 -63.86273 12000 ft 360 kts 44°
2026-05-03 22:07 -31.02826 -63.84197 12008 ft 361 kts 44°
2026-05-03 22:08 -31.01055 -63.82121 12013 ft 361 kts 44°
2026-05-03 22:08 -30.99281 -63.80044 12005 ft 362 kts 44°
2026-05-03 22:08 -30.97508 -63.77973 12010 ft 361 kts 43°
2026-05-03 22:08 -30.95730 -63.75899 12006 ft 361 kts 43°
2026-05-03 22:09 -30.93958 -63.73835 12008 ft 360 kts 43°
2026-05-03 22:09 -30.92186 -63.71764 12009 ft 360 kts 45°
2026-05-03 22:09 -30.90841 -63.69327 12006 ft 361 kts 71°
2026-05-03 22:10 -30.91281 -63.63721 12029 ft 355 kts 122°
2026-05-03 22:10 -30.92710 -63.61386 12013 ft 354 kts 130°
2026-05-03 22:10 -30.94268 -63.59171 12013 ft 354 kts 131°
2026-05-03 22:10 -30.95856 -63.56971 12006 ft 354 kts 132°
2026-05-03 22:11 -30.97447 -63.54778 12004 ft 354 kts 132°
2026-05-03 22:11 -30.99040 -63.52586 12013 ft 355 kts 132°
2026-05-03 22:11 -31.00636 -63.50395 12016 ft 355 kts 132°
2026-05-03 22:11 -31.02232 -63.48205 12015 ft 355 kts 132°
2026-05-03 22:12 -31.03292 -63.46751 12016 ft 355 kts 132°
2026-05-03 22:12 -31.05430 -63.43820 12019 ft 355 kts 132°
2026-05-03 22:12 -31.06490 -63.42365 12011 ft 355 kts 132°
2026-05-03 22:12 -31.08089 -63.40172 12022 ft 355 kts 132°
2026-05-03 22:13 -31.09688 -63.37979 12014 ft 355 kts 132°
2026-05-03 22:13 -31.11289 -63.35783 12022 ft 355 kts 132°
2026-05-03 22:13 -31.12891 -63.33587 12015 ft 355 kts 132°
2026-05-03 22:13 -31.14491 -63.31392 12022 ft 355 kts 132°
2026-05-03 22:14 -31.16090 -63.29198 12019 ft 355 kts 132°
2026-05-03 22:14 -31.17692 -63.27002 12016 ft 355 kts 132°
2026-05-03 22:14 -31.19292 -63.24806 12020 ft 355 kts 132°
2026-05-03 22:14 -31.20889 -63.22615 12020 ft 354 kts 132°
2026-05-03 22:15 -31.22489 -63.20422 12017 ft 354 kts 132°
2026-05-03 22:15 -31.24107 -63.18230 12221 ft 360 kts 136°
2026-05-03 22:15 -31.26168 -63.16627 12930 ft 356 kts 163°
2026-05-03 22:15 -31.28569 -63.16291 13841 ft 346 kts 190°
2026-05-03 22:16 -31.30888 -63.16969 14603 ft 343 kts 200°
2026-05-03 22:16 -31.33182 -63.17783 15280 ft 347 kts 200°
2026-05-03 22:16 -31.35506 -63.18600 15953 ft 350 kts 200°
2026-05-03 22:16 -31.37847 -63.19411 16656 ft 352 kts 200°
2026-05-03 22:17 -31.40207 -63.20219 17357 ft 355 kts 200°
2026-05-03 22:17 -31.42583 -63.21024 18075 ft 357 kts 200°
2026-05-03 22:17 -31.44979 -63.21831 18690 ft 359 kts 200°
2026-05-03 22:17 -31.47391 -63.22641 19299 ft 362 kts 200°
2026-05-03 22:18 -31.49816 -63.23454 19910 ft 364 kts 200°
2026-05-03 22:18 -31.52261 -63.24274 20530 ft 366 kts 200°
2026-05-03 22:18 -31.54714 -63.25096 21130 ft 369 kts 200°
2026-05-03 22:18 -31.57192 -63.25927 21738 ft 371 kts 200°
2026-05-03 22:19 -31.59683 -63.26763 22314 ft 374 kts 200°
2026-05-03 22:19 -31.62192 -63.27605 22876 ft 377 kts 200°
2026-05-03 22:19 -31.64720 -63.28454 23457 ft 379 kts 200°
2026-05-03 22:19 -31.67261 -63.29309 23949 ft 381 kts 200°
2026-05-03 22:20 -31.69789 -63.30159 24398 ft 384 kts 200°
2026-05-03 22:20 -31.72369 -63.31027 24855 ft 387 kts 200°
2026-05-03 22:20 -31.74963 -63.31900 25314 ft 389 kts 200°
2026-05-03 22:20 -31.77571 -63.32779 25796 ft 391 kts 200°
2026-05-03 22:21 -31.80194 -63.33663 26254 ft 393 kts 201°
2026-05-03 22:21 -31.82826 -63.34545 26688 ft 396 kts 199°
2026-05-03 22:21 -31.85605 -63.34892 27095 ft 410 kts 181°
2026-05-03 22:21 -31.88431 -63.34191 27507 ft 425 kts 165°
2026-05-03 22:22 -31.91071 -63.32522 27912 ft 440 kts 148°
2026-05-03 22:22 -31.93268 -63.29935 28306 ft 452 kts 135°
2026-05-03 22:22 -31.95258 -63.27039 28685 ft 457 kts 133°
2026-05-03 22:22 -31.97205 -63.24065 29049 ft 461 kts 132°
2026-05-03 22:23 -31.99155 -63.21051 29410 ft 463 kts 132°
2026-05-03 22:23 -32.01121 -63.18029 29768 ft 466 kts 133°
2026-05-03 22:23 -32.03111 -63.14999 30110 ft 468 kts 133°
2026-05-03 22:23 -32.05120 -63.11969 30418 ft 470 kts 133°
2026-05-03 22:24 -32.07144 -63.08936 30724 ft 472 kts 133°
2026-05-03 22:24 -32.09182 -63.05891 31020 ft 474 kts 133°
2026-05-03 22:24 -32.11227 -63.02839 31296 ft 476 kts 134°
2026-05-03 22:24 -32.13287 -62.99763 31565 ft 478 kts 134°
2026-05-03 22:25 -32.15343 -62.96690 31912 ft 478 kts 134°
2026-05-03 22:25 -32.17397 -62.93613 32346 ft 475 kts 134°
2026-05-03 22:25 -32.19436 -62.90555 32759 ft 474 kts 134°
2026-05-03 22:25 -32.21477 -62.87493 33107 ft 474 kts 134°
2026-05-03 22:26 -32.23484 -62.84479 33453 ft 473 kts 134°